Wind_Speed
36 37 32 32 36 35 33 30 27 28 32 38 39 44 44 41 35 32 28 25 23 20 16 11 8 5 1 6 11 8 11 10 15 17 16 13 13 18 16 17 15 13 10 8 9
32 30 30 33 31 28 29 27 26 26 29 33 36 44 45 44 38 33 30 28 25 21 17 11 8 5 4 7 6 2 8 9 14 13 16 17 14 17 14 16 14 12 11 9 7
28 29 32 32 27 25 25 26 26 26 27 29 35 42 43 44 39 36 33 29 28 22 16 12 9 8 11 4 6 5 13 5 11 11 13 17 19 19 18 16 12 11 10 9 6
29 32 32 30 24 24 26 26 27 26 27 28 34 42 42 43 39 37 35 32 29 24 18 15 12 13 23 15 5 17 9 7 7 9 9 12 15 20 23 23 22 20 19 17 15
30 31 31 25 24 25 24 23 23 25 26 27 33 42 43 44 41 39 38 35 31 26 20 19 15 13 14 11 10 4 1 4 1 3 3 6 10 14 18 20 19 20 18 17 16
26 23 21 20 24 23 21 22 22 24 26 26 33 42 44 44 43 40 39 38 33 29 23 22 20 16 18 18 15 8 7 2 2 2 2 2 4 11 13 13 14 14 13 13 11
23 17 16 18 21 18 19 21 23 24 24 25 32 41 44 45 43 42 40 40 35 31 26 25 23 22 24 17 14 6 2 3 1 5 5 4 3 7 10 11 7 7 7 8 7
21 18 17 18 17 16 18 21 23 23 24 25 30 41 44 45 44 42 41 42 38 33 29 28 25 21 25 22 8 4 7 6 2 7 6 7 1 4 7 10 10 7 3 2 1
20 17 16 16 14 11 18 22 24 24 24 27 29 39 45 48 45 43 42 42 39 36 31 29 26 25 23 16 11 10 5 13 7 4 7 4 3 4 5 9 7 6 4 5 6
20 18 16 16 12 9 16 22 23 22 23 27 30 37 45 47 47 45 44 42 40 38 34 32 29 27 25 21 16 11 8 18 5 9 9 5 7 3 5 8 7 7 7 8 10
21 19 17 16 15 9 13 20 25 25 24 26 31 36 44 49 49 47 45 44 41 39 37 34 32 32 25 21 19 17 26 21 19 9 12 17 16 7 6 7 7 5 5 6 8
25 21 19 16 16 13 10 16 25 27 28 29 32 36 43 50 50 49 47 45 43 41 38 35 36 31 30 30 31 12 30 31 22 12 15 15 12 8 8 9 8 5 2 2 6
30 26 21 18 18 16 13 12 19 26 30 31 35 39 43 48 52 51 50 47 46 43 40 39 36 35 38 37 30 35 26 21 22 20 16 16 13 12 12 10 10 10 7 4 5
35 30 26 20 19 19 17 13 13 21 27 29 34 40 43 49 51 53 50 48 46 43 39 37 35 35 31 36 35 32 37 22 24 24 18 15 19 16 15 16 14 12 12 10 10
40 36 30 25 20 20 19 17 13 16 20 25 28 34 44 49 55 54 53 48 47 44 33 19 42 44 32 37 39 33 17 34 33 28 23 19 20 22 21 20 18 17 16 17 17
47 42 36 31 25 22 21 22 17 17 22 26 31 32 40 47 52 54 52 51 53 50 53 43 48 45 44 34 34 38 35 39 43 37 29 26 28 28 25 25 24 23 23 22 22
52 49 42 37 32 25 24 24 23 21 23 27 29 33 40 45 53 53 52 51 50 47 44 44 49 44 41 37 37 40 41 40 41 39 32 26 33 30 28 31 29 29 31 30 29
46 54 50 42 38 32 27 26 28 25 25 24 30 34 40 46 52 52 53 54 53 51 50 47 45 42 42 36 35 38 39 40 34 39 20 24 31 38 31 43 33 33 35 34 34
42 50 56 50 44 39 32 31 30 30 25 28 29 32 38 46 51 52 52 55 56 55 49 44 45 46 40 45 45 45 35 40 32 25 23 16 26 29 29 37 40 35 40 39 39
36 47 54 58 50 44 38 37 34 32 34 31 34 36 39 45 49 51 53 56 57 56 53 48 45 46 43 50 49 44 46 41 40 40 33 42 47 46 53 54 46 44 45 44 44
35 39 49 60 57 50 45 45 39 37 38 36 36 38 40 44 49 52 54 57 58 57 54 50 44 20 42 28 47 46 45 56 53 52 51 55 63 64 61 52 52 50 49 50 51
35 35 42 54 61 58 53 51 45 42 40 42 40 44 45 46 49 52 53 55 56 57 55 53 51 50 50 47 59 53 56 64 55 54 53 58 65 65 65 55 56 56 56 58 55
36 33 39 50 60 64 62 57 52 49 46 45 48 48 48 49 51 51 53 54 57 57 56 55 53 56 63 57 58 58 52 58 55 56 59 64 66 77 62 62 66 61 60 62 63
39 39 40 38 56 66 66 62 59 54 53 51 49 51 51 52 54 56 56 60 56 57 54 55 56 57 59 62 63 64 58 62 62 66 59 61 63 71 69 74 73 61 64 64 65
42 43 37 43 48 64 70 70 67 60 61 56 55 52 53 55 56 57 57 58 55 55 54 58 55 57 58 60 64 72 71 67 63 63 69 69 72 78 85 79 77 66 63 68 72
44 48 47 46 44 53 69 72 71 68 65 63 62 61 59 58 58 58 57 56 55 56 54 52 50 55 55 59 65 71 70 73 71 74 75 75 77 81 89 80 73 61 67 71 74
52 49 52 49 50 50 59 73 76 76 74 68 66 66 64 64 60 60 60 58 58 54 56 57 55 62 61 66 68 66 67 71 79 81 81 80 80 83 85 88 84 67 66 77 70
Wind_Direction
283 282 280 284 281 271 267 262 257 243 232 228 225 219 213 212 212 206 203 201 204 210 214 213 217 218 244 29 42 226 47 343 24 35 59 73 110 112 113 119 126 126 138 153 166
279 278 283 289 284 268 261 254 251 242 231 225 217 214 211 208 209 201 200 200 204 207 207 202 208 210 95 49 258 210 32 16 41 43 69 80 97 117 118 105 105 112 123 137 159
283 284 290 292 280 265 256 251 247 241 231 221 214 210 208 206 204 200 198 199 203 202 197 195 184 178 136 359 290 35 26 17 49 58 67 84 87 94 97 97 98 97 97 100 102
291 291 290 289 274 265 261 254 244 236 228 221 211 205 204 200 200 199 198 197 201 199 195 194 176 172 159 148 181 46 344 354 54 69 64 69 87 93 92 92 90 92 92 92 92
295 289 287 281 273 272 262 252 236 228 219 217 208 200 200 196 198 197 198 197 199 198 196 193 181 170 166 209 230 157 207 350 23 116 78 35 68 86 93 97 99 102 102 97 87
304 300 283 279 280 271 249 240 228 217 213 211 204 197 196 198 196 196 198 195 198 198 197 195 185 162 219 210 213 185 160 134 20 333 13 29 68 68 91 100 103 106 95 83 70
309 297 291 293 289 264 236 230 219 211 208 204 197 194 194 196 195 194 195 195 198 198 199 198 191 173 187 191 182 173 343 117 298 18 351 359 20 60 90 88 118 93 72 52 49
310 297 291 298 297 266 228 220 212 209 205 201 196 193 194 192 194 195 194 196 199 199 198 194 197 189 187 185 193 175 172 179 353 55 332 274 337 48 107 102 97 103 80 53 59
308 304 295 299 311 270 219 214 209 211 207 201 197 194 194 195 196 196 196 198 200 199 199 195 197 190 192 180 174 143 226 229 126 94 49 319 181 116 116 117 127 132 128 99 79
297 305 295 292 304 281 218 211 208 208 209 204 199 197 197 199 198 198 197 199 200 199 200 197 201 200 193 174 163 145 204 206 237 165 150 57 157 240 169 148 143 123 105 87 77
285 296 293 285 285 279 233 216 210 208 203 203 201 198 198 198 198 199 200 199 198 199 200 198 197 197 191 177 169 223 244 217 214 221 235 232 270 256 209 184 174 150 114 79 63
273 280 290 279 277 275 256 228 221 216 213 208 206 203 198 198 199 198 200 200 198 198 201 199 201 199 184 192 180 165 205 215 212 217 230 227 239 243 231 230 226 217 192 59 42
264 268 272 277 270 268 258 244 225 219 217 215 209 207 201 200 199 198 199 199 196 196 199 206 206 201 193 193 192 201 207 233 221 223 244 241 244 252 251 251 253 254 264 299 325
257 258 260 266 264 263 255 247 233 220 213 215 215 211 206 202 201 200 200 199 195 195 201 209 208 206 205 197 211 205 217 246 237 237 226 251 249 257 252 262 270 277 282 286 299
251 251 252 254 262 255 257 244 233 221 217 215 212 206 204 202 201 199 198 198 194 193 184 227 212 204 193 203 205 212 196 232 227 215 233 244 262 260 272 274 277 281 286 293 296
247 247 245 246 249 253 250 241 232 222 211 214 214 206 201 201 201 202 200 198 197 192 195 202 210 209 210 207 206 212 231 236 231 231 237 252 264 260 273 276 275 278 279 281 286
243 243 240 240 241 245 244 242 229 226 216 213 210 207 203 198 201 201 199 201 200 196 201 206 209 213 213 209 229 229 230 232 243 241 239 263 273 287 284 272 272 277 280 283 285
242 238 238 233 235 237 240 239 230 223 224 213 209 206 203 198 200 201 200 201 200 199 204 205 209 214 218 223 224 231 231 242 260 250 287 285 263 269 276 264 267 271 275 281 288
244 237 234 231 230 231 235 235 233 222 219 215 208 203 202 200 199 201 201 201 201 203 206 207 208 212 220 225 234 239 242 243 248 253 229 230 242 275 274 262 274 273 276 280 285
250 237 232 231 225 226 229 235 230 224 218 214 207 202 200 201 200 200 202 204 204 206 208 208 210 217 223 228 226 236 242 245 240 229 235 233 247 232 247 270 273 275 279 282 286
253 244 231 228 225 222 226 229 228 225 220 212 208 206 203 202 202 201 204 207 208 210 211 211 210 217 229 232 226 229 242 241 235 235 241 244 253 261 270 269 269 273 276 279 283
251 248 240 226 226 221 224 225 225 225 222 216 210 206 207 208 206 206 209 212 213 214 215 215 213 212 211 235 236 228 242 238 234 241 243 251 253 259 267 269 269 272 274 279 282
250 245 245 228 223 223 222 222 221 222 221 219 214 211 211 211 209 211 215 215 216 217 219 220 221 223 224 230 228 229 241 233 231 245 254 256 258 262 262 261 264 268 272 279 282
251 243 243 235 225 223 223 222 222 220 221 219 217 217 213 213 214 216 217 219 219 223 226 230 228 229 227 229 229 227 234 236 239 239 244 252 257 261 263 263 264 271 273 277 278
249 246 239 237 229 223 222 223 220 218 221 220 219 217 216 216 217 220 222 224 225 225 226 230 230 230 231 231 233 231 233 231 240 244 249 251 257 264 267 264 272 275 275 278 279
241 240 237 236 233 225 223 222 223 220 220 220 219 218 218 219 218 220 223 228 231 228 225 236 234 235 235 234 236 241 237 238 242 249 253 255 258 260 266 268 271 272 274 277 280
237 235 237 234 232 229 226 223 222 224 220 219 221 221 222 221 222 222 223 223 225 233 235 231 238 237 229 231 235 242 247 244 246 247 250 254 255 260 264 268 269 272 278 286 277
Height
10958 10956 10953 10951 10949 10947 10946 10946 10947 10950 10953 10957 10963 10969 10976 10983 10992 11000 11006 11011 11015 11019 11023 11027 11028 11032 11034 11036 11039 11036 11033 11030 11023 11021 11018 11017 11016 11013 11014 11014 11015 11015 11016 11018 11021
10952 10950 10947 10944 10940 10938 10938 10939 10941 10943 10947 10950 10956 10962 10970 10979 10988 10997 11003 11008 11012 11017 11023 11027 11029 11031 11037 11043 11041 11034 11032 11031 11025 11025 11023 11021 11020 11017 11017 11016 11016 11017 11018 11019 11021
10946 10944 10940 10937 10934 10932 10932 10933 10935 10937 10941 10944 10950 10957 10965 10975 10984 10992 10999 11005 11010 11017 11023 11026 11029 11032 11034 11009 11032 11037 11031 11032 11028 11029 11029 11026 11024 11021 11019 11019 11020 11020 11021 11022 11023
10941 10937 10934 10930 10928 10927 10927 10927 10929 10932 10936 10940 10945 10953 10961 10971 10982 10990 10996 11002 11008 11016 11022 11025 11027 11031 11038 11022 11031 11041 11036 11032 11033 11033 11034 11032 11028 11025 11022 11022 11023 11023 11023 11023 11024
10935 10931 10927 10924 10922 10922 10922 10922 10923 10927 10931 10935 10941 10949 10958 10968 10976 10984 10992 10999 11006 11014 11020 11023 11026 11030 11042 11039 11033 11033 11033 11033 11035 11036 11035 11033 11030 11027 11027 11026 11026 11026 11026 11026 11027
10929 10924 10921 10920 10918 10917 10917 10918 10920 10923 10927 10931 10937 10945 10955 10965 10973 10981 10989 10997 11004 11011 11017 11020 11026 11034 11019 11032 11034 11032 11032 11035 11036 11037 11037 11035 11032 11030 11029 11030 11030 11029 11029 11028 11028
10925 10922 10919 10916 10914 10912 10913 10915 10917 10921 10925 10929 10934 10942 10951 10960 10969 10977 10985 10994 11001 11007 11013 11016 11023 11031 11033 11036 11032 11034 11033 11034 11038 11038 11037 11035 11033 11032 11032 11031 11032 11032 11031 11030 11030
10923 10919 10917 10914 10910 10908 10909 10912 10915 10919 10923 10927 10932 10939 10947 10957 10965 10973 10982 10990 10998 11004 11009 11012 11019 11026 11027 11034 11032 11034 11033 11036 11039 11033 11034 11037 11034 11034 11033 11033 11033 11033 11033 11033 11032
10921 10917 10914 10912 10908 10906 10907 10909 10913 10917 10921 10925 10930 10936 10944 10952 10961 10969 10978 10987 10995 11001 11005 11010 11015 11020 11025 11030 11033 11033 11034 11034 11033 11028 11035 11039 11039 11034 11035 11034 11035 11035 11035 11034 11034
10918 10915 10912 10910 10908 10905 10905 10908 10911 10914 10918 10922 10927 10932 10941 10949 10957 10965 10974 10983 10991 10998 11003 11007 11011 11015 11019 11026 11031 11033 11035 11035 11034 11040 11038 11037 11035 11037 11036 11035 11036 11036 11036 11036 11035
10915 10913 10910 10908 10906 10905 10904 10906 10908 10911 10914 10919 10924 10929 10933 10942 10951 10961 10969 10978 10987 10994 10999 11003 11008 11012 11016 11022 11025 11032 11029 11035 11034 11037 11037 11042 11038 11037 11036 11036 11037 11037 11037 11036 11035
10911 10910 10908 10906 10904 10903 10903 10903 10905 10907 10912 10915 10920 10924 10931 10937 10946 10955 10965 10974 10983 10989 10995 11000 11004 11012 11018 11017 11020 11021 11026 11029 11032 11034 11036 11036 11036 11035 11035 11035 11036 11036 11036 11036 11035
10905 10906 10905 10903 10902 10901 10901 10901 10901 10903 10907 10911 10915 10920 10926 10933 10940 10949 10958 10967 10977 10985 10990 10995 11002 11011 11014 11015 11016 11021 11021 11027 11025 11029 11031 11032 11033 11034 11035 11034 11034 11034 11034 11034 11033
10898 10899 10900 10900 10899 10898 10899 10899 10899 10900 10902 10905 10909 10914 10921 10927 10937 10945 10953 10963 10974 10982 10987 10993 11002 11006 11011 11013 11015 11019 11023 11024 11024 11027 11029 11032 11031 11032 11033 11032 11032 11032 11032 11031 11030
10889 10892 10894 10895 10895 10895 10895 10896 10897 10897 10900 10902 10904 10907 10914 10921 10927 10938 10947 10959 10970 10976 10986 10985 10993 10998 11002 11012 11015 11020 11025 11020 11023 11025 11025 11029 11028 11029 11030 11031 11029 11029 11028 11028 11027
10877 10882 10886 10888 10889 10891 10891 10892 10894 10895 10896 10896 10899 10903 10908 10915 10925 10934 10945 10953 10960 10968 10974 10974 10985 10993 10996 11002 11008 11012 11017 11018 11018 11022 11023 11022 11023 11029 11029 11026 11026 11026 11025 11024 11023
10866 10870 10875 10880 10883 10885 10887 10888 10889 10890 10891 10892 10894 10899 10902 10911 10917 10929 10940 10949 10960 10968 10973 10977 10981 10987 10992 10997 11003 11004 11010 11014 11016 11017 11015 11018 11015 11018 11020 11018 11021 11022 11020 11020 11019
10852 10857 10864 10870 10874 10878 10881 10883 10883 10886 10886 10890 10891 10894 10899 10905 10913 10924 10933 10941 10951 10958 10961 10970 10976 10981 10986 10989 10995 11000 11008 11011 11012 11007 11014 11016 11006 11003 11014 11007 11013 11016 11014 11013 11011
10839 10843 10850 10858 10863 10869 10874 10876 10877 10880 10883 10885 10888 10892 10896 10902 10909 10918 10926 10934 10941 10948 10957 10965 10972 10977 10982 10985 10993 10994 11004 11005 11007 11009 11009 11009 11002 10997 11001 11002 11002 11009 11006 11007 11003
10826 10829 10837 10843 10853 10860 10866 10867 10871 10874 10877 10880 10883 10887 10892 10897 10905 10913 10920 10926 10933 10941 10948 10958 10964 10970 10978 10977 10980 10987 10992 11000 11005 10998 10995 10997 10996 10991 10989 10993 10995 10997 10997 10998 10995
10814 10816 10824 10829 10839 10849 10853 10854 10862 10866 10870 10874 10879 10883 10888 10893 10899 10906 10911 10917 10925 10933 10942 10950 10959 10967 10969 10965 10969 10977 10984 10989 10988 10990 10992 10989 10980 10980 10979 10988 10986 10987 10988 10988 10987
10802 10806 10806 10816 10825 10833 10840 10843 10851 10858 10863 10868 10873 10877 10882 10888 10893 10899 10905 10912 10919 10926 10935 10942 10949 10950 10958 10958 10960 10967 10971 10973 10978 10976 10980 10979 10974 10967 10968 10979 10976 10978 10977 10974 10979
10789 10794 10791 10800 10809 10817 10821 10831 10840 10847 10853 10859 10864 10868 10875 10881 10886 10893 10899 10904 10908 10917 10924 10931 10938 10944 10946 10949 10951 10959 10959 10963 10963 10963 10966 10965 10960 10939 10968 10964 10958 10969 10969 10967 10965
10776 10779 10780 10788 10792 10800 10810 10819 10827 10836 10842 10848 10855 10860 10866 10872 10877 10883 10888 10890 10903 10908 10918 10920 10926 10931 10938 10940 10941 10944 10945 10948 10948 10952 10954 10955 10950 10936 10939 10939 10942 10961 10960 10958 10954
10761 10766 10774 10772 10774 10783 10792 10800 10811 10821 10827 10836 10844 10850 10856 10861 10866 10872 10878 10884 10891 10896 10902 10904 10913 10918 10923 10927 10927 10924 10928 10934 10941 10944 10940 10942 10937 10922 10913 10930 10934 10948 10952 10947 10941
10745 10748 10753 10757 10764 10766 10773 10786 10796 10805 10813 10823 10830 10837 10843 10849 10856 10862 10868 10874 10880 10887 10891 10897 10903 10905 10912 10915 10914 10913 10923 10927 10928 10926 10926 10926 10924 10906 10902 10919 10920 10937 10937 10934 10922
10724 10731 10736 10742 10746 10752 10757 10768 10780 10786 10796 10807 10817 10823 10831 10836 10845 10852 10857 10865 10874 10876 10881 10884 10888 10892 10896 10897 10900 10907 10911 10911 10905 10908 10911 10911 10909 10902 10897 10890 10900 10930 10930 10907 10904